sat.trackr.live / text

‹ back to catalog

STARLINK-34900

NORAD 65374 · 2025-190Z

PAYLOAD ACTIVE UNKNOWN

§ Identity

Operator
Country
US
Launch date
2025-08-28
Launch site
AFETR
Launch vehicle
Mass (kg)
RCS (m²)

Purposes: comms

External: N2YO · Heavens-Above · Gunter

§ Orbital elements

Epoch: 2026-09-20T21:53:25.579104Z

Period
93.85 min
Inclination
53.1592°
Eccentricity
0.0001323
Mean motion
15.34402640 rev/d
Perigee alt
461.8 km
Apogee alt
463.6 km
Semi-major
6,840.8 km
B*
3.8479e-4
RAAN
340.0392°
Arg perigee
86.7719°
Mean anomaly
273.3435°
Rev number
5,914

§ Raw data

STARLINK-349001 65374U 25190Z   26263.91210161  .00012648  00000+0  38479-3 0  99962 65374  53.1592 340.0392 0001323  86.7719 273.3435 15.34402640 59145

JSON: /api/v1/satellites/65374 · /tle

For live sub-satellite position, see the globe view (requires WebGL).

§ Visibility from observer

Set your observer location to see the next 7 days of passes ≥ 10°. The values pass through the URL so the page stays shareable.

No JS? Fill the form by hand. The geolocation button needs JavaScript.